QPF
0.06 0.06 0.07 0.08 0.09 0.11 0.11 0.10 0.11 0.12 0.12 0.11 0.13 0.14 0.12 0.11 0.12 0.08 0.06 0.07 0.06 0.05 0.04 0.04 0.04 0.05 0.05 0.05 0.04 0.04 0.04 0.04 0.05 0.06 0.07 0.09 0.09 0.09
0.05 0.06 0.08 0.09 0.09 0.08 0.08 0.08 0.08 0.09 0.11 0.11 0.12 0.13 0.13 0.12 0.13 0.09 0.08 0.08 0.06 0.05 0.04 0.03 0.03 0.03 0.05 0.07 0.07 0.05 0.04 0.04 0.03 0.04 0.05 0.06 0.05 0.05
0.06 0.07 0.08 0.09 0.07 0.06 0.06 0.07 0.07 0.08 0.10 0.12 0.12 0.12 0.13 0.14 0.15 0.12 0.10 0.08 0.07 0.06 0.05 0.04 0.03 0.03 0.03 0.04 0.04 0.04 0.03 0.03 0.03 0.03 0.04 0.05 0.05 0.04
0.08 0.08 0.08 0.08 0.07 0.06 0.05 0.06 0.06 0.08 0.10 0.11 0.12 0.11 0.12 0.11 0.12 0.11 0.09 0.08 0.07 0.06 0.05 0.04 0.03 0.03 0.03 0.02 0.02 0.02 0.02 0.03 0.03 0.04 0.05 0.05 0.05 0.04
0.08 0.10 0.11 0.11 0.09 0.07 0.06 0.05 0.06 0.07 0.08 0.08 0.10 0.11 0.11 0.11 0.12 0.12 0.10 0.08 0.07 0.05 0.04 0.03 0.02 0.02 0.02 0.02 0.02 0.02 0.03 0.03 0.04 0.04 0.04 0.04 0.04 0.03
0.07 0.08 0.09 0.11 0.09 0.06 0.05 0.04 0.06 0.07 0.08 0.09 0.10 0.11 0.11 0.11 0.12 0.11 0.09 0.07 0.05 0.04 0.03 0.03 0.02 0.01 0.01 0.01 0.01 0.01 0.01 0.01 0.01 0.02 0.01 0.01 0.02 0.01
0.06 0.05 0.05 0.06 0.07 0.05 0.03 0.03 0.03 0.05 0.07 0.07 0.07 0.08 0.08 0.08 0.09 0.08 0.08 0.07 0.05 0.03 0.03 0.03 0.03 0.02 0.01 0.01 0.01 0.00 0.01 0.01 0.01 0.00 0.00 0.00 0.01 0.01
0.05 0.04 0.04 0.05 0.04 0.05 0.03 0.02 0.02 0.04 0.06 0.06 0.06 0.07 0.07 0.07 0.08 0.08 0.07 0.08 0.08 0.05 0.04 0.05 0.04 0.04 0.03 0.02 0.01 0.01 0.00 0.00 0.00 0.00 0.00 0.00 0.00 0.00
0.05 0.04 0.03 0.02 0.03 0.05 0.04 0.03 0.03 0.03 0.03 0.04 0.05 0.06 0.06 0.05 0.05 0.06 0.06 0.07 0.07 0.05 0.05 0.06 0.05 0.04 0.03 0.01 0.01 0.01 0.00 0.00 0.00 0.00 0.00 0.00 0.00 0.00
0.04 0.05 0.04 0.03 0.01 0.02 0.04 0.04 0.04 0.03 0.02 0.03 0.04 0.03 0.03 0.03 0.03 0.04 0.04 0.05 0.06 0.05 0.05 0.07 0.06 0.04 0.02 0.02 0.02 0.01 0.00 0.00 0.00 0.00 0.00 0.00 0.00 0.00
0.03 0.03 0.03 0.02 0.01 0.01 0.03 0.06 0.06 0.04 0.01 0.01 0.01 0.01 0.02 0.02 0.02 0.03 0.05 0.06 0.07 0.07 0.05 0.05 0.05 0.04 0.04 0.03 0.02 0.01 0.00 0.00 0.00 0.00 0.00 0.00 0.00 0.00
0.04 0.03 0.02 0.01 0.02 0.02 0.04 0.06 0.06 0.05 0.04 0.03 0.02 0.02 0.02 0.01 0.01 0.03 0.05 0.06 0.07 0.07 0.04 0.04 0.05 0.04 0.04 0.03 0.02 0.02 0.01 0.01 0.00 0.00 0.00 0.00 0.00 0.00
0.06 0.05 0.03 0.02 0.02 0.02 0.03 0.04 0.02 0.03 0.06 0.07 0.06 0.06 0.06 0.05 0.04 0.03 0.04 0.05 0.06 0.06 0.03 0.03 0.05 0.05 0.06 0.05 0.04 0.03 0.03 0.02 0.01 0.01 0.01 0.00 0.00 0.00
0.05 0.04 0.03 0.02 0.01 0.01 0.01 0.01 0.01 0.02 0.05 0.07 0.07 0.07 0.07 0.06 0.06 0.04 0.03 0.03 0.03 0.04 0.03 0.03 0.04 0.05 0.06 0.06 0.06 0.04 0.04 0.04 0.03 0.03 0.02 0.01 0.01 0.00
0.02 0.01 0.01 0.01 0.01 0.01 0.01 0.02 0.02 0.04 0.06 0.06 0.06 0.06 0.05 0.04 0.04 0.03 0.02 0.02 0.02 0.02 0.02 0.03 0.04 0.05 0.05 0.06 0.06 0.06 0.05 0.04 0.04 0.04 0.04 0.03 0.02 0.01
0.02 0.02 0.02 0.02 0.03 0.03 0.03 0.04 0.04 0.03 0.04 0.05 0.04 0.04 0.03 0.02 0.02 0.02 0.02 0.03 0.03 0.02 0.02 0.02 0.02 0.04 0.05 0.05 0.06 0.06 0.05 0.04 0.03 0.04 0.03 0.03 0.02 0.02
0.02 0.03 0.04 0.04 0.04 0.04 0.04 0.04 0.03 0.03 0.03 0.03 0.02 0.02 0.01 0.01 0.01 0.01 0.01 0.02 0.04 0.03 0.03 0.02 0.02 0.02 0.02 0.03 0.04 0.04 0.04 0.03 0.03 0.03 0.03 0.03 0.02 0.02
0.01 0.03 0.03 0.03 0.03 0.03 0.03 0.02 0.01 0.02 0.02 0.02 0.02 0.02 0.01 0.01 0.00 0.00 0.01 0.02 0.05 0.04 0.02 0.02 0.02 0.02 0.03 0.03 0.02 0.03 0.04 0.03 0.02 0.02 0.02 0.02 0.02 0.02
0.01 0.01 0.01 0.01 0.02 0.01 0.01 0.01 0.01 0.01 0.01 0.02 0.02 0.01 0.01 0.01 0.01 0.01 0.01 0.03 0.04 0.02 0.01 0.01 0.01 0.01 0.03 0.05 0.02 0.01 0.02 0.03 0.02 0.02 0.02 0.02 0.02 0.01
0.00 0.00 0.00 0.00 0.00 0.00 0.00 0.00 0.00 0.00 0.01 0.01 0.01 0.01 0.01 0.01 0.02 0.02 0.02 0.02 0.02 0.01 0.01 0.01 0.00 0.01 0.01 0.02 0.02 0.01 0.01 0.01 0.02 0.02 0.02 0.01 0.01 0.00
0.00 0.00 0.00 0.00 0.00 0.00 0.00 0.00 0.00 0.00 0.00 0.00 0.00 0.01 0.01 0.01 0.01 0.01 0.01 0.01 0.01 0.01 0.01 0.00 0.00 0.00 0.00 0.00 0.00 0.00 0.00 0.00 0.00 0.00 0.00 0.00 0.01 0.01
0.00 0.00 0.00 0.00 0.00 0.00 0.00 0.00 0.00 0.00 0.00 0.00 0.00 0.00 0.01 0.01 0.01 0.00 0.00 0.01 0.01 0.01 0.00 0.00 0.00 0.00 0.00 0.00 0.00 0.00 0.00 0.00 0.00 0.00 0.00 0.00 0.00 0.00
0.00 0.00 0.00 0.00 0.00 0.00 0.00 0.00 0.00 0.00 0.00 0.00 0.00 0.00 0.00 0.00 0.00 0.00 0.00 0.00 0.00 0.00 0.00 0.00 0.00 0.00 0.00 0.00 0.00 0.00 0.00 0.00 0.00 0.00 0.00 0.00 0.00 0.00
MSLP
1015.99 1016.42 1017.02 1017.74 1018.53 1019.34 1020.12 1020.83 1021.45 1021.99 1022.44 1022.82 1023.16 1023.48 1023.79 1024.11 1024.42 1024.73 1025.04 1025.35 1025.66 1025.95 1026.24 1026.53 1026.80 1027.06 1027.29 1027.50 1027.66 1027.78 1027.86 1027.90 1027.91 1027.91 1027.90 1027.90 1027.90 1027.91
1015.89 1016.26 1016.78 1017.40 1018.11 1018.84 1019.56 1020.23 1020.85 1021.40 1021.89 1022.32 1022.72 1023.10 1023.46 1023.82 1024.17 1024.51 1024.84 1025.16 1025.47 1025.78 1026.08 1026.38 1026.68 1026.96 1027.22 1027.45 1027.64 1027.78 1027.87 1027.91 1027.92 1027.90 1027.86 1027.81 1027.76 1027.72
1016.00 1016.29 1016.70 1017.21 1017.80 1018.42 1019.05 1019.67 1020.25 1020.79 1021.30 1021.77 1022.22 1022.64 1023.05 1023.44 1023.82 1024.18 1024.53 1024.85 1025.17 1025.48 1025.78 1026.09 1026.39 1026.68 1026.96 1027.21 1027.42 1027.58 1027.69 1027.75 1027.76 1027.73 1027.66 1027.58 1027.50 1027.41
1016.29 1016.50 1016.80 1017.19 1017.64 1018.15 1018.67 1019.21 1019.75 1020.27 1020.78 1021.27 1021.74 1022.20 1022.64 1023.07 1023.46 1023.83 1024.18 1024.50 1024.81 1025.11 1025.40 1025.69 1025.98 1026.27 1026.55 1026.81 1027.03 1027.21 1027.34 1027.41 1027.43 1027.40 1027.33 1027.23 1027.12 1027.01
1016.74 1016.87 1017.06 1017.33 1017.66 1018.04 1018.47 1018.92 1019.41 1019.90 1020.40 1020.90 1021.39 1021.87 1022.32 1022.76 1023.16 1023.53 1023.87 1024.18 1024.46 1024.73 1025.00 1025.26 1025.53 1025.79 1026.05 1026.29 1026.51 1026.69 1026.83 1026.91 1026.94 1026.93 1026.87 1026.78 1026.67 1026.55
1017.27 1017.33 1017.43 1017.59 1017.81 1018.09 1018.43 1018.82 1019.25 1019.72 1020.20 1020.70 1021.19 1021.67 1022.14 1022.57 1022.97 1023.32 1023.64 1023.93 1024.18 1024.42 1024.64 1024.86 1025.07 1025.29 1025.51 1025.71 1025.90 1026.07 1026.20 1026.29 1026.34 1026.35 1026.32 1026.26 1026.17 1026.07
1017.82 1017.82 1017.85 1017.92 1018.07 1018.27 1018.55 1018.89 1019.28 1019.72 1020.19 1020.67 1021.16 1021.63 1022.08 1022.50 1022.88 1023.22 1023.51 1023.77 1023.99 1024.18 1024.35 1024.52 1024.67 1024.82 1024.98 1025.12 1025.27 1025.40 1025.51 1025.60 1025.66 1025.69 1025.70 1025.67 1025.62 1025.56
1018.33 1018.28 1018.26 1018.29 1018.38 1018.54 1018.78 1019.09 1019.46 1019.88 1020.32 1020.79 1021.25 1021.70 1022.13 1022.52 1022.88 1023.19 1023.46 1023.69 1023.87 1024.03 1024.15 1024.26 1024.34 1024.42 1024.50 1024.58 1024.65 1024.73 1024.81 1024.88 1024.95 1025.00 1025.03 1025.04 1025.04 1025.02
1018.78 1018.70 1018.65 1018.65 1018.72 1018.87 1019.09 1019.39 1019.74 1020.14 1020.56 1021.00 1021.43 1021.85 1022.24 1022.60 1022.92 1023.20 1023.45 1023.65 1023.81 1023.93 1024.02 1024.07 1024.10 1024.11 1024.11 1024.10 1024.11 1024.12 1024.15 1024.19 1024.24 1024.29 1024.34 1024.39 1024.42 1024.44
1019.17 1019.08 1019.02 1019.02 1019.09 1019.23 1019.46 1019.75 1020.09 1020.47 1020.87 1021.27 1021.65 1022.02 1022.36 1022.68 1022.96 1023.22 1023.43 1023.62 1023.76 1023.86 1023.92 1023.94 1023.91 1023.87 1023.80 1023.72 1023.65 1023.60 1023.57 1023.56 1023.58 1023.61 1023.66 1023.72 1023.77 1023.81
1019.54 1019.45 1019.40 1019.40 1019.49 1019.65 1019.88 1020.17 1020.49 1020.85 1021.20 1021.55 1021.88 1022.19 1022.47 1022.74 1022.98 1023.20 1023.40 1023.57 1023.70 1023.79 1023.83 1023.83 1023.78 1023.69 1023.57 1023.43 1023.30 1023.18 1023.08 1023.02 1022.99 1022.99 1023.01 1023.05 1023.09 1023.13
1019.95 1019.86 1019.81 1019.84 1019.93 1020.10 1020.34 1020.62 1020.92 1021.23 1021.54 1021.83 1022.10 1022.34 1022.56 1022.76 1022.96 1023.15 1023.32 1023.48 1023.60 1023.69 1023.74 1023.73 1023.66 1023.55 1023.39 1023.21 1023.03 1022.85 1022.69 1022.57 1022.48 1022.43 1022.40 1022.39 1022.41 1022.42
1020.41 1020.32 1020.29 1020.32 1020.43 1020.60 1020.82 1021.08 1021.35 1021.62 1021.87 1022.09 1022.28 1022.46 1022.61 1022.76 1022.91 1023.06 1023.21 1023.35 1023.47 1023.56 1023.60 1023.59 1023.52 1023.40 1023.23 1023.02 1022.80 1022.58 1022.37 1022.19 1022.04 1021.93 1021.84 1021.78 1021.74 1021.71
1020.92 1020.84 1020.81 1020.84 1020.94 1021.10 1021.30 1021.52 1021.75 1021.96 1022.15 1022.30 1022.43 1022.54 1022.63 1022.73 1022.83 1022.94 1023.06 1023.18 1023.29 1023.37 1023.41 1023.40 1023.34 1023.21 1023.03 1022.82 1022.58 1022.33 1022.08 1021.85 1021.65 1021.48 1021.33 1021.20 1021.10 1021.01
1021.45 1021.35 1021.31 1021.33 1021.41 1021.54 1021.70 1021.88 1022.05 1022.21 1022.34 1022.44 1022.51 1022.56 1022.61 1022.65 1022.71 1022.79 1022.87 1022.97 1023.06 1023.12 1023.15 1023.13 1023.06 1022.94 1022.76 1022.54 1022.29 1022.03 1021.76 1021.51 1021.26 1021.04 1020.83 1020.65 1020.49 1020.35
1021.91 1021.80 1021.74 1021.73 1021.77 1021.85 1021.97 1022.09 1022.21 1022.32 1022.40 1022.46 1022.49 1022.51 1022.51 1022.53 1022.55 1022.59 1022.65 1022.71 1022.76 1022.80 1022.80 1022.76 1022.68 1022.55 1022.37 1022.16 1021.91 1021.65 1021.37 1021.10 1020.83 1020.58 1020.33 1020.11 1019.90 1019.72
1022.23 1022.10 1022.00 1021.95 1021.95 1021.98 1022.04 1022.12 1022.19 1022.26 1022.31 1022.34 1022.35 1022.35 1022.34 1022.34 1022.34 1022.35 1022.37 1022.39 1022.40 1022.39 1022.36 1022.29 1022.19 1022.04 1021.86 1021.64 1021.40 1021.15 1020.88 1020.60 1020.33 1020.06 1019.80 1019.55 1019.31 1019.10
1022.36 1022.19 1022.06 1021.96 1021.91 1021.89 1021.91 1021.94 1021.98 1022.02 1022.05 1022.07 1022.08 1022.08 1022.08 1022.07 1022.06 1022.05 1022.04 1022.02 1021.98 1021.93 1021.85 1021.74 1021.60 1021.43 1021.24 1021.02 1020.78 1020.53 1020.27 1020.01 1019.74 1019.47 1019.20 1018.94 1018.69 1018.47
1022.29 1022.09 1021.92 1021.78 1021.68 1021.62 1021.59 1021.59 1021.61 1021.64 1021.67 1021.70 1021.73 1021.75 1021.76 1021.76 1021.75 1021.72 1021.68 1021.62 1021.54 1021.43 1021.30 1021.15 1020.97 1020.77 1020.56 1020.33 1020.10 1019.85 1019.60 1019.34 1019.08 1018.81 1018.54 1018.28 1018.02 1017.79
1022.05 1021.82 1021.61 1021.44 1021.31 1021.22 1021.17 1021.15 1021.16 1021.19 1021.23 1021.29 1021.34 1021.38 1021.41 1021.43 1021.42 1021.39 1021.32 1021.23 1021.11 1020.95 1020.78 1020.58 1020.36 1020.13 1019.90 1019.66 1019.41 1019.16 1018.91 1018.66 1018.39 1018.12 1017.84 1017.57 1017.31 1017.07
1021.69 1021.44 1021.23 1021.04 1020.89 1020.78 1020.72 1020.70 1020.71 1020.75 1020.82 1020.89 1020.97 1021.04 1021.09 1021.12 1021.12 1021.08 1021.00 1020.89 1020.73 1020.54 1020.32 1020.08 1019.83 1019.57 1019.31 1019.05 1018.79 1018.53 1018.27 1018.00 1017.72 1017.43 1017.14 1016.85 1016.57 1016.30
1021.28 1021.04 1020.82 1020.63 1020.48 1020.38 1020.32 1020.31 1020.33 1020.39 1020.48 1020.57 1020.68 1020.77 1020.84 1020.88 1020.88 1020.84 1020.75 1020.61 1020.43 1020.22 1019.97 1019.70 1019.42 1019.14 1018.85 1018.57 1018.28 1018.00 1017.71 1017.41 1017.10 1016.79 1016.46 1016.14 1015.82 1015.52
1020.87 1020.64 1020.43 1020.26 1020.13 1020.05 1020.01 1020.02 1020.07 1020.14 1020.24 1020.36 1020.47 1020.58 1020.65 1020.70 1020.70 1020.65 1020.55 1020.40 1020.21 1019.97 1019.71 1019.43 1019.13 1018.82 1018.51 1018.20 1017.89 1017.57 1017.24 1016.91 1016.56 1016.19 1015.83 1015.46 1015.09 1014.75
Thickness
5623 5623 5623 5623 5623 5622 5620 5618 5616 5611 5608 5607 5605 5605 5605 5605 5604 5602 5601 5600 5598 5596 5595 5594 5592 5591 5589 5587 5586 5584 5582 5580 5578 5576 5575 5573 5571 5568
5613 5613 5613 5613 5614 5613 5612 5611 5611 5608 5603 5601 5599 5597 5596 5596 5594 5593 5592 5591 5588 5587 5585 5584 5583 5581 5580 5578 5576 5574 5572 5570 5568 5567 5565 5563 5561 5559
5603 5604 5604 5604 5604 5604 5603 5602 5602 5602 5597 5593 5590 5589 5588 5587 5585 5583 5582 5581 5579 5578 5576 5575 5573 5572 5570 5569 5567 5565 5563 5561 5559 5557 5556 5554 5552 5550
5593 5594 5595 5595 5595 5594 5594 5594 5593 5593 5590 5585 5581 5579 5578 5578 5576 5575 5574 5573 5572 5570 5568 5566 5565 5563 5561 5560 5558 5556 5554 5553 5551 5549 5547 5545 5543 5541
5584 5585 5585 5585 5585 5585 5585 5585 5584 5584 5582 5578 5574 5572 5570 5569 5568 5566 5566 5566 5565 5562 5560 5558 5556 5555 5554 5553 5551 5549 5547 5545 5543 5541 5540 5538 5535 5533
5575 5575 5575 5575 5575 5576 5576 5575 5575 5573 5572 5569 5566 5564 5563 5561 5560 5558 5557 5557 5557 5555 5552 5551 5549 5548 5546 5545 5543 5542 5540 5538 5537 5535 5533 5531 5529 5527
5565 5565 5565 5566 5566 5566 5566 5565 5565 5564 5563 5561 5559 5557 5554 5553 5551 5551 5550 5550 5549 5548 5546 5545 5543 5541 5539 5538 5537 5536 5534 5533 5531 5530 5528 5525 5524 5522
5555 5556 5557 5558 5557 5557 5557 5557 5556 5556 5554 5553 5552 5549 5547 5546 5545 5544 5543 5542 5540 5541 5540 5539 5539 5537 5536 5535 5534 5532 5531 5529 5527 5525 5523 5521 5519 5518
5547 5548 5550 5549 5549 5549 5549 5549 5549 5548 5548 5547 5544 5542 5541 5540 5539 5537 5536 5536 5535 5536 5535 5534 5535 5534 5534 5534 5532 5530 5528 5526 5524 5522 5520 5518 5516 5514
5539 5540 5540 5539 5539 5540 5543 5543 5543 5541 5541 5540 5538 5536 5536 5534 5533 5533 5532 5532 5532 5532 5531 5528 5529 5530 5531 5530 5529 5527 5525 5523 5521 5519 5517 5515 5514 5512
5531 5531 5532 5532 5531 5534 5537 5536 5536 5534 5533 5533 5532 5531 5530 5529 5528 5527 5527 5526 5526 5527 5528 5526 5526 5527 5527 5527 5526 5525 5523 5521 5519 5517 5515 5514 5512 5510
5524 5524 5524 5525 5526 5528 5529 5529 5528 5527 5528 5528 5527 5526 5525 5525 5524 5523 5523 5522 5522 5522 5524 5523 5523 5523 5522 5524 5524 5523 5521 5519 5518 5516 5515 5513 5511 5508
5520 5519 5518 5519 5521 5522 5523 5523 5522 5522 5524 5525 5525 5524 5523 5523 5522 5522 5522 5521 5519 5519 5521 5521 5520 5520 5519 5520 5521 5522 5521 5520 5518 5516 5515 5514 5511 5508
5515 5515 5514 5515 5517 5519 5520 5520 5520 5521 5522 5523 5523 5522 5522 5522 5521 5521 5520 5520 5520 5520 5520 5520 5518 5518 5517 5516 5518 5520 5520 5520 5519 5518 5516 5515 5512 5510
5511 5511 5512 5513 5515 5517 5518 5519 5520 5520 5521 5521 5521 5521 5522 5522 5521 5521 5520 5520 5520 5521 5521 5521 5520 5519 5518 5516 5516 5518 5518 5519 5519 5518 5516 5515 5513 5511
5510 5512 5513 5515 5515 5516 5518 5519 5520 5521 5521 5521 5521 5523 5523 5522 5522 5522 5521 5521 5520 5521 5522 5522 5521 5520 5517 5517 5517 5517 5518 5518 5518 5518 5516 5515 5514 5512
5508 5513 5516 5517 5518 5519 5520 5521 5522 5522 5522 5522 5523 5523 5523 5523 5523 5523 5523 5522 5520 5520 5521 5522 5522 5521 5520 5519 5517 5517 5518 5518 5518 5517 5515 5513 5513 5513
5511 5515 5519 5520 5521 5521 5522 5523 5523 5523 5524 5524 5523 5523 5524 5524 5523 5524 5523 5522 5521 5521 5521 5522 5521 5520 5519 5520 5520 5519 5518 5517 5517 5517 5515 5512 5511 5513
5514 5519 5522 5523 5523 5524 5524 5524 5524 5525 5525 5525 5524 5524 5524 5524 5524 5523 5523 5523 5522 5522 5522 5522 5521 5519 5516 5515 5519 5519 5517 5516 5515 5514 5513 5512 5511 5512
5522 5524 5526 5527 5527 5527 5527 5527 5527 5527 5527 5526 5526 5526 5525 5525 5524 5523 5523 5523 5522 5522 5521 5521 5521 5520 5517 5516 5516 5517 5517 5515 5514 5512 5513 5513 5512 5512
5529 5530 5531 5531 5531 5530 5530 5530 5530 5529 5529 5528 5528 5527 5526 5525 5525 5524 5524 5523 5522 5522 5521 5521 5522 5522 5521 5519 5517 5517 5518 5518 5516 5514 5513 5511 5509 5509
5535 5535 5535 5535 5535 5535 5534 5534 5534 5533 5532 5531 5530 5529 5528 5527 5526 5526 5525 5524 5524 5523 5523 5523 5524 5522 5520 5518 5517 5517 5518 5519 5518 5516 5514 5512 5507 5506
5540 5540 5540 5540 5540 5539 5539 5538 5537 5536 5535 5534 5533 5532 5530 5529 5528 5527 5527 5526 5525 5524 5524 5523 5522 5521 5520 5519 5517 5517 5517 5516 5516 5515 5513 5513 5511 5509